Погода в Тавое

Мьянма     14°01′00″N   98°12′30″E
темп.,
°C
ветер,
м/с
пор.,
м/с
влажн.,
%
обл.,
%
осадки,
мм/ч
давл.,
гПа
погр.,
м
25 февраля, чт
чт2500:30+21всв119518 0.0 101023
03:30+21всв119599 0.0 100923
06:30+20всв119568 0.0 101123
09:30+29зсз335712 0.0 10121076
12:30+31з54467 0.0 10101145
15:30+30зсз444972 0.0 1007920
18:30+22сз228286 0.0 100825
21:30+20св119261 0.0 100923
26 февраля, пт
пт2600:30+19в119449 0.0 100923
03:30+19св12920 0.0 100823
06:30+18всв12920 0.0 100923
09:30+28сз33490 0.0 1010940
12:30+31зсз54430 0.0 1008972
15:30+29зсз44530 0.0 1005878
18:30+22сз12800 0.0 100724
21:30+20в11910 0.0 100923
27 февраля, сб
сб2700:30+19в11940 0.0 100823
03:30+18всв11930 0.0 100723
06:30+18всв11941 0.0 100823
09:30+29сз22521 0.0 1010907
12:30+32з53441 0.0 1008994
15:30+29з44550 0.0 1005838
18:30+23зсз11830 0.0 100724
21:30+21в11910 0.0 101023
28 февраля, вс
вс2800:30+20в11951 0.0 100923
03:30+19всв119541 0.0 100823
06:30+19в119634 0.0 101023
09:30+31з114655 0.0 1012767
12:30+33з643928 0.0 10091196
15:30+31з43477 0.0 1007854
18:30+24сз22765 0.0 100829
21:30+21в11891 0.0 101123
1 марта, пн
пн100:30+20в11847 0.0 101123
03:30+20в118045 0.0 101023
06:30+19всв117437 0.0 101123
09:30+31з21377 0.0 1013744
12:30+33з54373 0.0 10101020
15:30+31зсз55430 0.0 1008892
18:30+24сз22760 0.0 101028
21:30+22всв11870 0.0 101323